Location: Eschentzwiller
(47.7125°N, 7.3981°E)
Time: 00:55:57
(UTC+00:00)

ARGOS - Pass Details

Date: 27 October 2020
Orbit: 820 x 835 km, 98.4° (Epoch: 26 November)

Event Time Altitude Azimuth Distance (km) Brightness Sun altitude
Exits shadow 18:54:40 34° 179° (S) 1,347 4.1 -26.5°
Maximum altitude 18:57:06 73° 257° (WSW) 874 3.3 -26.9°
Drops below altitude 10° 19:02:33 10° 342° (NNW) 2,458 5.9 -27.8°
Sets 19:04:56 0° 345° (NNW) 3,396 6.7 -28.2°
